Regional Weather Roundup
Issued by NWS State College, PA

Home | Current Version | Previous Version | Text Only | Print | Product List | Glossary On
Versions: 1 2 3 4 5 6 7 8 9 10 11 12 13 14 15 16 17 18 19 20 21 22 23 24 25 26 27 28 29 30 31 32 33 34 35 36 37 38 39 40 41 42 43 44 45 46 47 48 49 50
000
ASUS41 KCTP 130503
RWRCTP

REGIONAL WEATHER ROUNDUP
NATIONAL WEATHER SERVICE STATE COLLEGE PA
1200 AM EST SAT FEB 13 2016

Note: "fair" indicates few or no clouds below 12,000 feet with no
significant weather and/or obstructions to visibility.

* = STATION THAT DOES NOT REPORT PRECIPITATION /E.G. RAIN...SNOW...ETC/
    THUNDER OR FOG.

PAZ002>004-007>009-013>016-020>023-029>032-130600-
WESTERN PENNSYLVANIA

CITY           SKY/WX    TMP DP  RH WIND       PRES   REMARKS
ERIE           MIX PCPN  17   5  59 NW22G33   30.03R WCI   0
MEADVILLE      SNOW      14   9  80 N15G21    29.96R VSB 1/2 WCI  -1
FRANKLIN*      CLOUDY    12   1  62 W9        29.94S WCI   0
NEW CASTLE     LGT SNOW  15  11  83 W10       30.03R FOG     WCI   2
BEAVER COUNTY  NOT AVBL
BUTLER*        MOCLDY    16  10  79 W6        30.02R WCI   7
PITTSBURGH INT PTCLDY    16   9  74 W20       30.01R WCI  -1
PITTSBURGH     LGT SNOW  18  10  71 NW13G26   29.99R WCI   5
INDIANA*       MOCLDY    18  12  79 NW13G22   29.96R HAZE    WCI   4
LATROBE        MOCLDY    18  10  73 W10G16    29.99R WCI   6
WASHINGTON CO* MOCLDY    18   9  68 W12G17    30.04R WCI   5
$$

PAZ004>006-010>012-017>019-024>028-033>037-041-042-045-046-049>053-130600-
CENTRAL PENNSYLVANIA

CITY           SKY/WX    TMP DP  RH WIND       PRES   REMARKS
BRADFORD       LGT SNOW  12   6  77 W10G21    29.80R WCI  -1
DUBOIS         MOCLDY    12   5  73 W12       29.86R WCI  -2
CLEARFIELD     LGT SNOW  17  10  74 NW10G22   29.87R WCI   5
JOHNSTOWN      LGT SNOW  14   9  80 W12G24    29.82S VSB 3/4 WCI   0
ALTOONA        CLOUDY    19   8  62 W21G30    29.88R WCI   3
STATE COLLEGE  CLOUDY    18  11  76 W17       29.87S WCI   2
WILLIAMSPORT   CLOUDY    20  11  68 W9        29.89F WCI   9
SELINSGROVE    MOCLDY    18  13  80 S5        29.93F WCI  11
FT INDIANTOWN  CLOUDY    18  18  98 SW1       29.93F
CAPITAL CITY   PTCLDY    19  14  81 W5        29.95F WCI  12
HARRISBURG     MOCLDY    21  15  78 CALM      29.95F
YORK           PTCLDY    17  13  84 CALM      29.95S
$$

PAZ038>040-043-044-047-048-054-055-060>062-067>071-130600-
EASTERN PENNSYLVANIA

CITY           SKY/WX    TMP DP  RH WIND       PRES   REMARKS
SCRANTON       LGT SNOW  18  12  77 SW7       29.85F WCI   9
MOUNT POCONO   LGT SNOW  13   8  81 W14       29.77F WCI  -2
ALLENTOWN      CLOUDY    20  14  77 W8        29.92F WCI  10
QUAKERTOWN*    PTCLDY    18  14  86 W5        29.93F WCI  11
READING        CLOUDY    19  15  84 SW5       29.94F WCI  12
LANCASTER      CLOUDY    18  16  92 SW5       29.95F WCI  11
COATESVILLE    PTCLDY    19  19 100 CALM      29.94F
POTTSTOWN      CLOUDY    19  14  81 VRB3      29.96F
BLUE BELL        N/A     21  14  73 W6        29.94F WCI  14
DOYLESTOWN     CLOUDY    18  13  80 SW8       29.93F WCI   8
WILLOW GROVE   NOT AVBL
NORTH PHILA    CLOUDY    23  14  68 W10       29.97F WCI  12
PHILADELPHIA   CLOUDY    24  15  68 W10       29.98F WCI  14
$$



USA.gov is the U.S. government's official web portal to all federal, state and local government web resources and services.